This demonstration page uses our WeatherBlox Daily Observations layout. Learn more.

Left ArrowRight Arrow

38.89511, -77.03637

Hourly Observations for December 13, 2020

Temp ( °F °C ) Dew Point ( °F °C ) Humidity (%) Winds ( mph kmh ) Pressure ( in mb ) Visibility ( mi km ) Precip ( " mm )
12:52 am 00:52 Mostly Cloudy 54 12.2 47 8.3 77 77 SSW 8 13 29.94 1014 10 16 0.00 0.00
1:52 am 01:52 Cloudy 51 10.6 46 7.8 83 83 S 8 13 29.95 1014 10 16 0.00 0.00
2:52 am 02:52 Mostly Cloudy 52 11.1 47 8.3 83 83 S 10 17 29.95 1014 10 16 0.00 0.00
3:52 am 03:52 Partly Cloudy 50 10 45 7.2 83 83 S 9 15 29.96 1014 10 16 0.00 0.00
4:52 am 04:52 Mostly Cloudy 49 9.4 45 7.2 86 86 S 10 17 29.96 1015 10 16 0.00 0.00
5:52 am 05:52 Mostly Cloudy 51 10.6 46 7.8 83 83 S 8 13 29.97 1015 10 16 0.00 0.00
6:52 am 06:52 Mostly Clear 50 10 46 7.8 86 86 S 5 7 29.98 1015 10 16 0.00 0.00
7:52 am 07:52 Mostly Sunny 49 9.4 45 7.2 86 86 S 8 13 30.01 1016 10 16 0.00 0.00
8:52 am 08:52 Mostly Sunny 53 11.7 48 8.9 83 83 S 3 6 30.02 1017 10 16 0.00 0.00
9:52 am 09:52 Partly Cloudy 55 12.8 48 8.9 77 77 S 8 13 30.03 1017 10 16 0.00 0.00
10:52 am 10:52 Mostly Cloudy 58 14.4 49 9.4 72 72 S 6 9 30.03 1017 10 16 0.00 0.00
11:52 am 11:52 Mostly Cloudy 62 16.7 49 9.4 62 62 ENE 3 6 29.99 1016 10 16 0.00 0.00
12:52 pm 12:52 Mostly Cloudy 65 18.3 48 8.9 54 54 N 10 17 29.99 1016 10 16 0.00 0.00
1:52 pm 13:52 Mostly Cloudy 66 18.9 45 7.2 47 47 NNE 7 11 29.98 1015 10 16 0.00 0.00
2:52 pm 14:52 Mostly Cloudy 64 17.8 43 6.1 46 46 NNW 14 22 30.00 1016 10 16 0.00 0.00
3:52 pm 15:52 Mostly Cloudy 60 15.6 41 5 50 50 NNW 14 22 30.02 1017 10 16 0.00 0.00
4:52 pm 16:52 Mostly Cloudy 56 13.3 39 3.9 53 53 NNW 14 22 30.02 1017 10 16 0.00 0.00
5:52 pm 17:52 Mostly Cloudy 53 11.7 38 3.3 57 57 NNW 10 17 30.04 1017 10 16 0.00 0.00
6:52 pm 18:52 Partly Cloudy 50 10 37 2.8 61 61 NNW 7 11 30.06 1018 10 16 0.00 0.00
7:52 pm 19:52 Partly Cloudy 50 10 36 2.2 59 59 N 12 19 30.09 1019 10 16 0.00 0.00
8:52 pm 20:52 Partly Cloudy 49 9.4 36 2.2 61 61 NNE 10 17 30.08 1019 10 16 0.00 0.00
9:52 pm 21:52 Partly Cloudy 47 8.3 36 2.2 66 66 NNE 9 15 30.06 1018 10 16 0.00 0.00
10:52 pm 22:52 Mostly Cloudy 47 8.3 35 1.7 63 63 NNE 10 17 30.08 1019 10 16 0.00 0.00
11:52 pm 23:52 Mostly Cloudy 46 7.8 35 1.7 66 66 NNE 9 15 30.04 1017 10 16 0.00 0.00

Powered by AerisWeather